User: anonymous   Login
Location: Harmony
(28.2000°N, 81.1500°W)
Time: 03:26:03
(UTC-05:00)
Language:

BREEZE-M DEB (TANK) - Orbit

View from above orbital plane
View from above orbital plane
View from above satellite
View from above satellite

Ground track
Ground track

The orbit data is extracted from the following two-line orbital elements,

1 28188U 04008B   18054.41865259  .00001967  00000-0  31829-3 0  9996
2 28188  49.4524 141.2066 5120025 157.3935 237.2483  5.42779759266373
Epoch (UTC): 23 February 2018 10:02:51
Eccentricity: 0.5120025
inclination: 49.4524°
perigee height: 296 km
apogee height: 14301 km
right ascension of ascending node: 141.2066°
argument of perigee: 157.3935°
revolutions per day: 5.42779759
mean anomaly at epoch: 237.2483°
orbit number at epoch: 26637

The dashed part of the orbit path shows where the satellite is in the earth's shadow,  

DLR